Starlink 11295

operational
NORAD ID: 61536 Int'l Des: 2024-184 Owner: SPXS Country: US Constellation: starlink
LEOCIRCULAR

关于 Starlink 11295

正在加载描述...

实时位置

正在加载3D地球...

即将过境

高度历史

Altitude vs Time

uPlot chart will show altitude changes over time

两行轨道根数

1 61536U 24184E 25305.93833957 -.00001873 00000-0 -10620-4 0 9996
2 61536 53.1598 145.9502 0000778 124.5532 235.5560 15.69687767 60356
Epoch: Nov 1, 2025 • Age: 41 hours

当前状态

高度 360.3 km
速度 7.70 km/s
星下点 17.46°N, 130.23°W
发射日期 Oct 15, 2024
运行时间 1 years
类型 internet

技术详情

分类 Payload
质量 960.00 kg
干质量 910.00 kg
总质量 960.00 kg
长度 0.30 m
直径 4.10 m
跨度 29.00 m
形状 Box + pan
制造商 SPXS
平台类型 Starlink V2MD
阶段状态 In Orbit
所有者/国家 SPXS/US

大型星座

Loading constellations...